When you browse on this site, cookies collect data to enhance your experience and personalize the content and advertising you see.
Visit our Privacy Policy to learn more. By continuing to use the site, you agree to this use of cookies and data.
  • In Hungary
  • List of Countries
  • For 7 days
  • Water Temperature
  • Satellite Maps
  • Weather Map
  • News
  • Weather Widgets
  • user-avatar
    Login

    Hourly Weather Kivercy

    Today, 24 April, Wednesday

    Time Temperature Precipitation Wind Pressure Humidity
    00:00 +9°C° 0 mm 5 mps 750 mmHg 57%
    01:00 +8°C° 0 mm 5 mps 750 mmHg 58%
    02:00 +8°C° 0 mm 5 mps 750 mmHg 59%
    03:00 +8°C° 0 mm 5 mps 750 mmHg 60%
    04:00 +7°C° 0 mm 5 mps 750 mmHg 60%
    05:00 +7°C° 0 mm 6 mps 750 mmHg 60%
    06:00 +8°C° 0 mm 7 mps 750 mmHg 57%
    07:00 +9°C° 0 mm 7 mps 750 mmHg 53%
    08:00 +11°C° 0 mm 8 mps 750 mmHg 49%
    09:00 +11°C° 0 mm 8 mps 750 mmHg 48%
    10:00 +12°C° 0 mm 8 mps 750 mmHg 46%
    11:00 +13°C° 0 mm 8 mps 750 mmHg 45%
    12:00 +13°C° 0 mm 8 mps 750 mmHg 44%
    13:00 +15°C° 0 mm 8 mps 750 mmHg 44%
    14:00 +16°C° 0 mm 8 mps 750 mmHg 43%
    15:00 +16°C° 0 mm 8 mps 750 mmHg 45%
    16:00 +16°C° 0 mm 7 mps 749 mmHg 46%
    17:00 +16°C° 0 mm 7 mps 749 mmHg 48%
    18:00 +15°C° 0 mm 6 mps 749 mmHg 52%
    19:00 +14°C° 0 mm 5 mps 749 mmHg 56%
    20:00 +12°C° 0 mm 5 mps 749 mmHg 61%
    21:00 +12°C° 0 mm 5 mps 749 mmHg 62%
    22:00 +10°C° 0 mm 5 mps 749 mmHg 63%
    23:00 +10°C° 0 mm 5 mps 749 mmHg 65%

    Tomorrow, 25 April, Thursday

    Time Temperature Precipitation Wind Pressure Humidity
    00:00 +9°C° 0 mm 5 mps 749 mmHg 65%
    01:00 +9°C° 0 mm 5 mps 749 mmHg 65%
    02:00 +9°C° 0 mm 5 mps 749 mmHg 66%
    03:00 +9°C° 0 mm 5 mps 749 mmHg 67%
    04:00 +8°C° 0 mm 5 mps 749 mmHg 68%
    05:00 +8°C° 0 mm 5 mps 749 mmHg 68%
    06:00 +9°C° 0 mm 5 mps 749 mmHg 67%
    07:00 +10°C° 0 mm 6 mps 749 mmHg 65%
    08:00 +11°C° 0 mm 6 mps 749 mmHg 63%
    09:00 +14°C° 0 mm 6 mps 749 mmHg 60%
    10:00 +16°C° 0 mm 6 mps 749 mmHg 57%
    11:00 +17°C° 0 mm 6 mps 749 mmHg 53%
    12:00 +19°C° 0 mm 6 mps 748 mmHg 52%
    13:00 +20°C° 0 mm 6 mps 748 mmHg 51%
    14:00 +21°C° 0 mm 6 mps 748 mmHg 49%
    15:00 +21°C° 0 mm 6 mps 747 mmHg 51%
    16:00 +21°C° 0 mm 6 mps 747 mmHg 53%
    17:00 +20°C° 0 mm 6 mps 747 mmHg 54%
    18:00 +19°C° 0 mm 5 mps 747 mmHg 60%
    19:00 +17°C° 0 mm 4 mps 747 mmHg 65%
    20:00 +14°C° 0 mm 4 mps 746 mmHg 71%
    21:00 +14°C° 0.1 mm 4 mps 746 mmHg 73%
    22:00 +13°C° 0.1 mm 4 mps 746 mmHg 74%
    23:00 +12°C° 0.1 mm 4 mps 746 mmHg 76%

    Day after tomorrow, 26 April, Friday

    Time Temperature Precipitation Wind Pressure Humidity
    00:00 +12°C° 0.3 mm 3 mps 746 mmHg 79%
    01:00 +12°C° 0.3 mm 3 mps 746 mmHg 81%
    02:00 +12°C° 0.3 mm 3 mps 746 mmHg 83%
    03:00 +11°C° 0.2 mm 3 mps 745 mmHg 85%
    04:00 +11°C° 0.2 mm 3 mps 745 mmHg 87%
    05:00 +11°C° 0.2 mm 3 mps 745 mmHg 89%
    06:00 +12°C° 0 mm 4 mps 745 mmHg 84%
    07:00 +13°C° 0 mm 4 mps 745 mmHg 80%
    08:00 +15°C° 0 mm 4 mps 745 mmHg 76%
    09:00 +18°C° 0 mm 4 mps 745 mmHg 70%
    10:00 +20°C° 0 mm 5 mps 744 mmHg 65%
    11:00 +22°C° 0 mm 5 mps 744 mmHg 59%
    12:00 +23°C° 0.3 mm 5 mps 744 mmHg 55%
    13:00 +24°C° 0.3 mm 6 mps 744 mmHg 51%
    14:00 +26°C° 0.3 mm 6 mps 743 mmHg 48%
    15:00 +25°C° 0.1 mm 5 mps 743 mmHg 51%
    16:00 +23°C° 0.1 mm 4 mps 742 mmHg 55%
    17:00 +23°C° 0.1 mm 4 mps 742 mmHg 58%
    18:00 +21°C° 1.4 mm 4 mps 742 mmHg 66%
    19:00 +19°C° 1.4 mm 5 mps 741 mmHg 73%
    20:00 +17°C° 1.4 mm 5 mps 741 mmHg 80%
    21:00 +16°C° 0.1 mm 5 mps 741 mmHg 82%
    22:00 +16°C° 0.1 mm 5 mps 741 mmHg 84%
    23:00 +15°C° 0.1 mm 5 mps 741 mmHg 85%

    27 April, Saturday

    Time Temperature Precipitation Wind Pressure Humidity
    00:00 +15°C° 0 mm 5 mps 741 mmHg 87%
    01:00 +15°C° 0 mm 4 mps 740 mmHg 89%
    02:00 +14°C° 0 mm 4 mps 740 mmHg 90%
    03:00 +14°C° 0.2 mm 4 mps 740 mmHg 91%
    04:00 +13°C° 0.2 mm 3 mps 740 mmHg 92%
    05:00 +13°C° 0.2 mm 3 mps 740 mmHg 93%
    06:00 +14°C° 0 mm 3 mps 740 mmHg 87%
    07:00 +17°C° 0 mm 4 mps 740 mmHg 82%
    08:00 +18°C° 0 mm 4 mps 740 mmHg 76%
    09:00 +20°C° 0 mm 4 mps 740 mmHg 69%
    10:00 +22°C° 0 mm 4 mps 740 mmHg 62%
    11:00 +23°C° 0 mm 4 mps 740 mmHg 54%
    12:00 +25°C° 0 mm 3 mps 740 mmHg 52%
    13:00 +26°C° 0 mm 3 mps 740 mmHg 50%
    14:00 +26°C° 0 mm 3 mps 740 mmHg 47%
    15:00 +26°C° 0 mm 3 mps 739 mmHg 49%
    16:00 +25°C° 0 mm 3 mps 739 mmHg 51%
    17:00 +25°C° 0 mm 3 mps 739 mmHg 53%
    18:00 +22°C° 0.4 mm 3 mps 739 mmHg 60%
    19:00 +20°C° 0.4 mm 3 mps 739 mmHg 68%
    20:00 +18°C° 0.4 mm 3 mps 739 mmHg 76%
    21:00 +17°C° 1.5 mm 3 mps 739 mmHg 80%
    22:00 +16°C° 1.5 mm 3 mps 739 mmHg 85%
    23:00 +16°C° 1.5 mm 3 mps 739 mmHg 90%

    28 April, Sunday

    Time Temperature Precipitation Wind Pressure Humidity
    00:00 +15°C° 0 mm 2 mps 739 mmHg 90%
    01:00 +15°C° 0 mm 1 mps 739 mmHg 90%
    02:00 +15°C° 0 mm 1 mps 739 mmHg 90%
    03:00 +15°C° 0.1 mm 1 mps 739 mmHg 91%
    04:00 +14°C° 0.1 mm 1 mps 738 mmHg 92%
    05:00 +14°C° 0.1 mm 1 mps 738 mmHg 93%
    06:00 +15°C° 0 mm 2 mps 739 mmHg 90%
    07:00 +16°C° 0 mm 2 mps 739 mmHg 87%
    08:00 +17°C° 0 mm 3 mps 739 mmHg 84%
    09:00 +18°C° 0 mm 3 mps 739 mmHg 79%
    10:00 +20°C° 0 mm 3 mps 739 mmHg 74%
    11:00 +21°C° 0 mm 4 mps 739 mmHg 69%
    12:00 +22°C° 0 mm 4 mps 739 mmHg 63%
    13:00 +23°C° 0 mm 4 mps 739 mmHg 57%
    14:00 +25°C° 0 mm 4 mps 739 mmHg 51%
    15:00 +23°C° 0 mm 4 mps 738 mmHg 50%
    16:00 +24°C° 0 mm 3 mps 738 mmHg 50%
    17:00 +24°C° 0 mm 3 mps 738 mmHg 49%
    18:00 +21°C° 0 mm 2 mps 738 mmHg 55%
    19:00 +19°C° 0 mm 2 mps 738 mmHg 61%
    20:00 +18°C° 0 mm 1 mps 739 mmHg 67%
    21:00 +18°C° 0 mm 1 mps 739 mmHg 72%
    22:00 +16°C° 0 mm 1 mps 739 mmHg 76%
    23:00 +15°C° 0 mm 1 mps 739 mmHg 81%

    29 April, Monday

    Time Temperature Precipitation Wind Pressure Humidity
    00:00 +15°C° 0 mm 1 mps 739 mmHg 83%
    01:00 +14°C° 0 mm 1 mps 739 mmHg 85%
    02:00 +14°C° 0 mm 1 mps 739 mmHg 86%
    03:00 +13°C° 0 mm 1 mps 739 mmHg 88%
    04:00 +13°C° 0 mm 1 mps 740 mmHg 89%
    05:00 +12°C° 0 mm 1 mps 740 mmHg 90%
    06:00 +14°C° 0 mm 2 mps 740 mmHg 88%
    07:00 +14°C° 0 mm 3 mps 741 mmHg 85%
    08:00 +15°C° 0 mm 4 mps 741 mmHg 83%
    09:00 +14°C° 0.7 mm 5 mps 741 mmHg 85%
    10:00 +13°C° 0.7 mm 6 mps 742 mmHg 87%
    11:00 +13°C° 0.7 mm 6 mps 742 mmHg 89%
    12:00 +11°C° 1.1 mm 6 mps 742 mmHg 88%
    13:00 +10°C° 1.1 mm 7 mps 742 mmHg 88%
    14:00 +10°C° 1.1 mm 7 mps 742 mmHg 88%
    15:00 +9°C° 0.1 mm 7 mps 742 mmHg 87%
    16:00 +9°C° 0.1 mm 6 mps 742 mmHg 86%
    17:00 +9°C° 0.1 mm 6 mps 743 mmHg 86%
    18:00 +9°C° 0.1 mm 6 mps 743 mmHg 86%
    19:00 +9°C° 0.1 mm 6 mps 743 mmHg 86%
    20:00 +8°C° 0.1 mm 6 mps 743 mmHg 86%
    21:00 +8°C° 0.1 mm 6 mps 744 mmHg 86%
    22:00 +8°C° 0.1 mm 6 mps 744 mmHg 86%
    23:00 +8°C° 0.1 mm 6 mps 744 mmHg 86%
    Show more